FW8533 Weather Reports


Display with metric or nautical units.
time (UTC)temp
F
wind
direction
speed
MPH
gust
MPH
rain 1hr
in
rain 24hr
in
rain mn
in
humidity
%
barometer
mb
20260906215646 85 175 1.0 1.0 0.00 0.00 0.00 22 1025.0
20260906215145 86 158 1.0 1.0 0.00 0.00 0.00 23 1025.1
20260906214643 87 206 1.0 1.0 0.00 0.00 0.00 22 1025.1
20260906214138 87 145 2.0 2.0 0.00 0.00 0.00 22 1025.5
20260906213638 86 183 1.0 2.0 0.00 0.00 0.00 22 1025.3
20260906213132 84 147 0.0 1.0 0.00 0.00 0.00 23 1025.6
20260906212630 85 153 1.0 1.0 0.00 0.00 0.00 23 1025.5
20260906212126 85 162 1.0 1.0 0.00 0.00 0.00 23 1025.5
20260906211625 84 227 3.0 3.0 0.00 0.00 0.00 23 1025.8
20260906211120 84 173 1.0 1.0 0.00 0.00 0.00 23 1025.6
20260906210616 85 154 0.0 0.0 0.00 0.00 0.00 22 1025.8
20260906210111 83 188 3.0 5.0 0.00 0.00 0.00 23 1025.9
20260906205606 81 158 2.0 2.0 0.00 0.00 0.00 24 1025.9
20260906205103 83 116 2.0 3.0 0.00 0.00 0.00 23 1026.0
20260906204601 84 179 2.0 2.0 0.00 0.00 0.00 23 1026.2
20260906204056 85 170 1.0 2.0 0.00 0.00 0.00 23 1025.9
20260906203556 83 163 1.0 1.0 0.00 0.00 0.00 24 1026.3
20260906203051 83 155 0.0 1.0 0.00 0.00 0.00 24 1026.4
20260906202548 84 208 3.0 5.0 0.00 0.00 0.00 24 1026.4
20260906202047 84 146 1.0 2.0 0.00 0.00 0.00 24 1026.5
20260906201542 86 207 3.0 3.0 0.00 0.00 0.00 23 1026.3
20260906201042 87 180 2.0 2.0 0.00 0.00 0.00 22 1026.4
20260906200538 86 129 3.0 5.0 0.00 0.00 0.00 23 1026.4
20260906200034 86 301 2.0 2.0 0.00 0.00 0.00 22 1026.5
20260906195529 85 216 2.0 2.0 0.00 0.00 0.00 23 1026.4
20260906195025 84 101 0.0 1.0 0.00 0.00 0.00 23 1026.7
20260906194521 83 171 1.0 2.0 0.00 0.00 0.00 24 1026.7
20260906194016 83 258 2.0 3.0 0.00 0.00 0.00 24 1026.9
20260906193516 82 176 1.0 1.0 0.00 0.00 0.00 23 1026.8
20260906193011 82 184 1.0 2.0 0.00 0.00 0.00 24 1027.0
20260906192507 83 184 4.0 6.0 0.00 0.00 0.00 23 1026.9
20260906192005 82 174 2.0 2.0 0.00 0.00 0.00 24 1026.8
20260906191501 83 211 2.0 2.0 0.00 0.00 0.00 24 1027.2
20260906191000 82 142 0.0 0.0 0.00 0.00 0.00 24 1027.0
20260906190459 81 157 3.0 3.0 0.00 0.00 0.00 25 1027.4
20260906185954 81 190 3.0 3.0 0.00 0.00 0.00 25 1027.0
20260906185453 82 163 0.0 1.0 0.00 0.00 0.00 25 1027.4
20260906184952 81 159 3.0 3.0 0.00 0.00 0.00 24 1027.4
20260906184448 81 161 1.0 1.0 0.00 0.00 0.00 24 1027.3
20260906183943 84 232 2.0 3.0 0.00 0.00 0.00 24 1027.4
20260906183439 80 178 1.0 1.0 0.00 0.00 0.00 24 1027.5
20260906182934 80 238 3.0 3.0 0.00 0.00 0.00 25 1027.7
20260906182430 82 260 5.0 6.0 0.00 0.00 0.00 25 1027.8
20260906181925 81 50 2.0 2.0 0.00 0.00 0.00 24 1027.8
20260906181421 80 167 2.0 2.0 0.00 0.00 0.00 25 1027.7
20260906180917 79 196 2.0 2.0 0.00 0.00 0.00 26 1027.8
20260906180411 79 133 3.0 5.0 0.00 0.00 0.00 26 1028.2
20260906175909 80 251 2.0 2.0 0.00 0.00 0.00 26 1028.2
20260906175404 79 189 1.0 3.0 0.00 0.00 0.00 27 1028.2
20260906174903 80 162 1.0 1.0 0.00 0.00 0.00 25 1028.1
20260906174402 79 153 0.0 1.0 0.00 0.00 0.00 26 1028.2
20260906173857 78 200 3.0 3.0 0.00 0.00 0.00 26 1028.4
20260906173353 79 221 2.0 2.0 0.00 0.00 0.00 27 1028.3
20260906172852 79 257 3.0 5.0 0.00 0.00 0.00 26 1028.2
20260906172348 79 130 1.0 1.0 0.00 0.00 0.00 27 1028.3
20260906171843 78 130 2.0 2.0 0.00 0.00 0.00 28 1028.6
20260906171338 77 159 1.0 1.0 0.00 0.00 0.00 28 1028.7
20260906170833 78 143 1.0 2.0 0.00 0.00 0.00 27 1028.6
20260906170330 77 164 1.0 1.0 0.00 0.00 0.00 31 1028.6
20260906165826 78 194 4.0 5.0 0.00 0.00 0.00 30 1028.6
20260906165324 77 145 1.0 1.0 0.00 0.00 0.00 30 1028.7
20260906164820 77 171 1.0 1.0 0.00 0.00 0.00 32 1028.7
20260906164319 76 197 2.0 2.0 0.00 0.00 0.00 32 1028.7
20260906163815 75 157 0.0 1.0 0.00 0.00 0.00 33 1028.6
20260906163311 74 158 1.0 1.0 0.00 0.00 0.00 34 1028.7
20260906162808 74 157 1.0 1.0 0.00 0.00 0.00 34 1028.8
20260906162307 75 161 1.0 1.0 0.00 0.00 0.00 36 1028.7
20260906161803 74 179 2.0 2.0 0.00 0.00 0.00 37 1028.7
20260906161301 73 166 2.0 2.0 0.00 0.00 0.00 39 1028.6
20260906160801 72 153 0.0 1.0 0.00 0.00 0.00 40 1028.7
20260906160255 72 175 1.0 2.0 0.00 0.00 0.00 41 1028.7
20260906155753 72 160 0.0 0.0 0.00 0.00 0.00 40 1028.7
20260906155248 73 177 1.0 1.0 0.00 0.00 0.00 39 1028.9
20260906154743 74 148 2.0 2.0 0.00 0.00 0.00 39 1028.7
20260906154238 74 156 0.0 1.0 0.00 0.00 0.00 40 1028.8
20260906153737 73 145 1.0 1.0 0.00 0.00 0.00 42 1028.6
20260906153231 73 162 0.0 1.0 0.00 0.00 0.00 42 1028.7
20260906152727 72 146 0.0 0.0 0.00 0.00 0.00 41 1028.6
20260906152221 71 159 2.0 2.0 0.00 0.00 0.00 42 1028.7
20260906151721 72 164 2.0 2.0 0.00 0.00 0.00 42 1028.8
20260906151217 71 153 0.0 0.0 0.00 0.00 0.00 42 1028.9
20260906150712 71 161 1.0 2.0 0.00 0.00 0.00 42 1028.8
20260906150207 71 143 1.0 1.0 0.00 0.00 0.00 42 1028.7
20260906145706 70 180 1.0 1.0 0.00 0.00 0.00 43 1028.8
20260906145206 70 169 1.0 2.0 0.00 0.00 0.00 44 1028.4
20260906144700 69 187 2.0 2.0 0.00 0.00 0.00 45 1028.6
20260906144155 69 153 1.0 1.0 0.00 0.00 0.00 45 1028.7
20260906143655 69 155 0.0 0.0 0.00 0.00 0.00 44 1028.7
20260906143152 68 152 0.0 0.0 0.00 0.00 0.00 44 1028.3
20260906142652 67 163 0.0 1.0 0.00 0.00 0.00 47 1028.3
20260906142147 68 130 0.0 0.0 0.00 0.00 0.00 49 1028.3
20260906141645 66 142 0.0 0.0 0.00 0.00 0.00 52 1028.2
20260906141141 65 142 0.0 0.0 0.00 0.00 0.00 53 1028.2
20260906140640 62 145 0.0 0.0 0.00 0.00 0.00 56 1028.4
20260906140135 61 134 0.0 0.0 0.00 0.00 0.00 59 1028.4
20260906135632 59 134 0.0 0.0 0.00 0.00 0.00 60 1028.4
20260906135128 58 124 0.0 1.0 0.00 0.00 0.00 62 1028.4
20260906134623 56 119 1.0 1.0 0.00 0.00 0.00 64 1028.2
20260906134118 54 119 0.0 1.0 0.00 0.00 0.00 68 1028.2
20260906133614 53 119 1.0 1.0 0.00 0.00 0.00 69 1028.1
20260906133109 52 118 0.0 1.0 0.00 0.00 0.00 70 1027.9
20260906132604 52 118 0.0 0.0 0.00 0.00 0.00 71 1028.1
20260906132059 52 119 0.0 0.0 0.00 0.00 0.00 71 1027.7
20260906131555 52 119 0.0 0.0 0.00 0.00 0.00 71 1028.1
20260906131050 53 124 1.0 1.0 0.00 0.00 0.00 71 1027.5
20260906130550 53 112 0.0 0.0 0.00 0.00 0.00 68 1027.7
20260906130045 53 82 1.0 1.0 0.00 0.00 0.00 68 1027.4
20260906125543 54 81 1.0 1.0 0.00 0.00 0.00 68 1027.5
20260906125042 54 80 1.0 2.0 0.00 0.00 0.00 67 1027.5
20260906124538 53 80 1.0 1.0 0.00 0.00 0.00 68 1027.4
20260906124033 53 80 1.0 1.0 0.00 0.00 0.00 70 1027.2
20260906123532 53 80 1.0 1.0 0.00 0.00 0.00 70 1027.3
20260906123027 53 80 1.0 1.0 0.00 0.00 0.00 69 1027.2
20260906122521 53 80 1.0 1.0 0.00 0.00 0.00 69 1027.4
20260906122018 53 80 1.0 1.0 0.00 0.00 0.00 69 1027.3
20260906121513 53 80 1.0 1.0 0.00 0.00 0.00 69 1027.2
20260906121009 54 80 1.0 1.0 0.00 0.00 0.00 68 1027.3
20260906120504 53 80 1.0 1.0 0.00 0.00 0.00 68 1027.4
20260906120001 53 96 1.0 1.0 0.00 0.00 0.00 69 1027.3
20260906115456 53 101 1.0 1.0 0.00 0.00 0.00 69 1027.5
20260906114956 53 101 1.0 1.0 0.00 0.00 0.00 69 1027.3
20260906114450 53 101 1.0 1.0 0.00 0.00 0.00 69 1027.3
20260906113947 53 101 1.0 1.0 0.00 0.00 0.00 69 1027.4
20260906113445 53 101 1.0 1.0 0.00 0.00 0.00 68 1027.4
20260906112941 53 101 1.0 1.0 0.00 0.00 0.00 68 1027.5
20260906112436 53 101 1.0 1.0 0.00 0.00 0.00 68 1027.4
20260906111932 53 101 1.0 1.0 0.00 0.00 0.00 68 1027.5
20260906111431 54 101 1.0 1.0 0.00 0.00 0.00 66 1027.9
20260906110926 54 101 1.0 2.0 0.00 0.00 0.00 67 1027.5
20260906110421 54 101 1.0 1.0 0.00 0.00 0.00 67 1027.5
20260906105920 54 101 1.0 1.0 0.00 0.00 0.00 67 1027.5
20260906105416 54 101 1.0 1.0 0.00 0.00 0.00 66 1027.7
20260906104912 54 101 1.0 1.0 0.00 0.00 0.00 66 1027.3
20260906104410 53 101 1.0 1.0 0.00 0.00 0.00 67 1027.7
20260906103909 53 101 1.0 1.0 0.00 0.00 0.00 67 1027.5
20260906103408 53 101 1.0 1.0 0.00 0.00 0.00 67 1027.4
20260906102904 53 101 1.0 1.0 0.00 0.00 0.00 67 1027.5
20260906102403 53 101 1.0 1.0 0.00 0.00 0.00 67 1027.4
20260906101858 53 101 1.0 1.0 0.00 0.00 0.00 66 1027.2
20260906101353 54 101 1.0 1.0 0.00 0.00 0.00 66 1027.2
20260906100848 54 101 1.0 1.0 0.00 0.00 0.00 66 1027.5
20260906100348 54 105 1.0 1.0 0.00 0.00 0.00 66 1027.3
20260906095843 54 106 1.0 1.0 0.00 0.00 0.00 66 1027.3
20260906095339 54 106 1.0 1.0 0.00 0.00 0.00 65 1027.2
20260906094838 54 106 1.0 1.0 0.00 0.00 0.00 66 1027.3
20260906094333 54 106 1.0 1.0 0.00 0.00 0.00 65 1027.0
20260906093829 54 106 0.0 1.0 0.00 0.00 0.00 65 1027.3
20260906093325 54 106 1.0 1.0 0.00 0.00 0.00 66 1027.3
20260906092820 55 106 1.0 1.0 0.00 0.00 0.00 65 1027.3
20260906092319 55 106 1.0 1.0 0.00 0.00 0.00 64 1027.2
20260906091815 55 106 1.0 1.0 0.00 0.00 0.00 64 1027.4
20260906091312 55 106 1.0 1.0 0.00 0.00 0.00 64 1027.0
20260906090808 56 106 1.0 1.0 0.00 0.00 0.00 63 1027.0
20260906090307 56 106 0.0 1.0 0.00 0.00 0.00 63 1027.3
20260906085806 56 106 1.0 1.0 0.00 0.00 0.00 62 1027.3
20260906085259 56 106 0.0 0.0 0.00 0.00 0.00 62 1027.0
20260906084755 56 106 1.0 1.0 0.00 0.00 0.00 62 1027.0
20260906084254 56 106 1.0 1.0 0.00 0.00 0.00 63 1027.2
20260906083749 57 106 1.0 1.0 0.00 0.00 0.00 62 1026.9
20260906083245 57 106 1.0 1.0 0.00 0.00 0.00 62 1027.3
20260906082739 58 106 0.0 0.0 0.00 0.00 0.00 60 1027.2
20260906082234 57 106 1.0 1.0 0.00 0.00 0.00 61 1027.2
20260906081730 59 106 1.0 1.0 0.00 0.00 0.00 58 1027.3
20260906081225 61 106 0.0 1.0 0.00 0.00 0.00 55 1027.5
20260906080722 60 127 1.0 1.0 0.00 0.00 0.00 57 1027.4
20260906080218 61 136 0.0 0.0 0.00 0.00 0.00 55 1027.4
20260906075712 59 108 1.0 2.0 0.00 0.00 0.00 58 1027.2
20260906075206 59 126 0.0 1.0 0.00 0.00 0.00 58 1027.4
20260906074702 59 90 3.0 5.0 0.00 0.00 0.00 59 1027.4
20260906074201 57 124 1.0 1.0 0.00 0.00 0.00 61 1027.5
20260906073656 57 89 0.0 1.0 0.00 0.00 0.00 62 1027.5
20260906073151 57 89 0.0 1.0 0.00 0.00 0.00 61 1027.2
20260906072646 59 89 1.0 1.0 0.00 0.00 0.00 60 1027.7
20260906072136 57 89 0.0 1.0 0.00 0.00 0.00 61 1027.5
20260906071632 57 88 1.0 1.0 0.00 0.00 0.00 63 1027.4
20260906071132 57 88 0.0 1.0 0.00 0.00 0.00 62 1027.0
20260906070629 57 88 0.0 1.0 0.00 0.00 0.00 62 1027.2
20260906070124 57 88 1.0 1.0 0.00 0.00 0.00 62 1027.4
20260906065624 57 88 1.0 1.0 0.00 0.00 0.00 62 1027.4
20260906065119 58 88 0.0 1.0 0.00 0.00 0.00 62 1027.2
20260906064615 57 88 1.0 2.0 0.00 0.00 0.00 62 1027.3
20260906064110 58 88 0.0 0.0 0.00 0.00 0.00 60 1027.4
20260906063605 58 88 1.0 1.0 0.00 0.00 0.00 60 1027.0
20260906063101 58 88 0.0 0.0 0.00 0.00 0.00 60 1027.3
20260906062556 59 88 0.0 0.0 0.00 0.00 0.00 60 1027.3
20260906062055 59 88 1.0 1.0 0.00 0.00 0.00 59 1027.3
20260906061552 59 88 0.0 1.0 0.00 0.00 0.00 59 1027.3
20260906061051 59 88 0.0 0.0 0.00 0.00 0.00 58 1027.2
20260906060548 59 88 0.0 1.0 0.00 0.00 0.00 59 1027.3
20260906060044 60 88 0.0 1.0 0.00 0.00 0.00 58 1027.0
20260906055540 61 88 1.0 1.0 0.00 0.00 0.00 57 1027.4
20260906055036 61 129 0.0 1.0 0.00 0.00 0.00 56 1027.2
20260906054535 61 138 0.0 0.0 0.00 0.00 0.00 56 1027.3
20260906054031 62 132 1.0 1.0 0.00 0.00 0.00 55 1027.0
20260906053527 61 138 0.0 1.0 0.00 0.00 0.00 53 1027.3
20260906053022 61 126 0.0 1.0 0.00 0.00 0.00 56 1027.3
20260906052518 60 120 1.0 1.0 0.00 0.00 0.00 56 1027.3
20260906052015 61 126 1.0 1.0 0.00 0.00 0.00 56 1027.3
20260906051510 60 121 0.0 1.0 0.00 0.00 0.00 55 1027.4
20260906051006 60 120 1.0 1.0 0.00 0.00 0.00 56 1027.0
20260906050500 60 121 1.0 1.0 0.00 0.00 0.00 57 1027.0
20260906050000 60 123 0.0 0.0 0.00 0.00 0.00 56 1026.8
20260906045458 60 119 1.0 1.0 0.00 0.00 0.00 55 1026.9
20260906044955 60 121 0.0 1.0 0.00 0.00 0.00 56 1027.2
20260906044449 60 123 1.0 1.0 0.00 0.00 0.00 56 1027.3
20260906043945 61 143 0.0 0.0 0.00 0.00 0.00 56 1027.2
20260906043441 60 123 1.0 2.0 0.00 0.00 0.00 55 1027.3
20260906042937 60 128 0.0 1.0 0.00 0.00 0.00 55 1027.2
20260906042436 61 106 1.0 1.0 0.00 0.00 0.00 55 1027.2
20260906041931 61 126 0.0 1.0 0.00 0.00 0.00 54 1027.2
20260906041427 62 130 2.0 2.0 0.00 0.00 0.00 54 1027.2
20260906040926 62 126 1.0 1.0 0.00 0.00 0.00 53 1027.3
20260906040422 63 121 1.0 1.0 0.00 0.00 0.00 52 1026.8
20260906035917 63 107 1.0 1.0 0.00 0.00 0.00 52 1026.9
20260906035412 63 132 0.0 1.0 0.00 0.00 0.00 52 1026.9
20260906034908 63 127 0.0 1.0 0.00 0.00 0.00 52 1026.9
20260906034402 63 132 0.0 1.0 0.00 0.00 0.00 52 1026.8
20260906033858 64 132 0.0 0.0 0.00 0.00 0.00 51 1026.9
20260906033357 64 136 0.0 0.0 0.00 0.00 0.00 51 1026.8
20260906032853 65 125 1.0 1.0 0.00 0.00 0.00 50 1026.8
20260906032349 64 133 0.0 0.0 0.00 0.00 0.00 50 1026.7
20260906031844 66 128 1.0 1.0 0.00 0.00 0.00 48 1026.5
20260906031339 65 117 1.0 1.0 0.00 0.00 0.00 49 1026.5
20260906030839 65 128 0.0 0.0 0.00 0.00 0.00 49 1026.4
20260906030335 66 125 1.0 1.0 0.00 0.00 0.00 49 1026.5
20260906025829 66 123 1.0 2.0 0.00 0.00 0.00 47 1026.5
20260906025323 67 134 0.0 1.0 0.00 0.00 0.00 48 1026.5
20260906024822 67 124 0.0 1.0 0.00 0.00 0.00 47 1026.4
20260906024321 67 129 1.0 1.0 0.00 0.00 0.00 46 1026.4
20260906023817 67 132 0.0 1.0 0.00 0.00 0.00 47 1026.2
20260906023312 67 129 0.0 0.0 0.00 0.00 0.00 48 1026.3
20260906022808 67 132 0.0 1.0 0.00 0.00 0.00 47 1026.4
20260906022306 68 127 0.0 1.0 0.00 0.00 0.00 47 1026.3
20260906021759 68 125 1.0 1.0 0.00 0.00 0.00 46 1026.0
20260906021258 67 131 0.0 1.0 0.00 0.00 0.00 48 1026.0
20260906020753 68 134 0.0 0.0 0.00 0.00 0.00 48 1026.3
20260906020252 68 134 1.0 1.0 0.00 0.00 0.00 47 1026.0
20260906015747 68 135 0.0 0.0 0.00 0.00 0.00 47 1025.9
20260906015245 69 122 1.0 1.0 0.00 0.00 0.00 46 1026.2
20260906014740 69 129 0.0 0.0 0.00 0.00 0.00 46 1026.0
20260906014236 70 128 0.0 0.0 0.00 0.00 0.00 46 1025.9
20260906013732 71 126 0.0 0.0 0.00 0.00 0.00 45 1026.2
20260906013231 71 140 1.0 1.0 0.00 0.00 0.00 44 1025.9
20260906012726 73 141 0.0 0.0 0.00 0.00 0.00 43 1025.8
20260906012222 73 141 0.0 0.0 0.00 0.00 0.00 42 1025.9
20260906011717 74 142 0.0 0.0 0.00 0.00 0.00 41 1025.4
20260906011211 75 142 0.0 0.0 0.00 0.00 0.00 40 1025.9
20260906010707 75 141 0.0 0.0 0.00 0.00 0.00 40 1025.8
20260906010203 75 135 1.0 1.0 0.00 0.00 0.00 40 1025.8
20260906005703 75 147 0.0 0.0 0.00 0.00 0.00 40 1025.6
20260906005203 76 171 0.0 0.0 0.00 0.00 0.00 40 1025.9
20260906004701 75 116 2.0 3.0 0.00 0.00 0.00 40 1026.0
20260906004156 76 163 0.0 0.0 0.00 0.00 0.00 40 1026.0
20260906003652 77 143 1.0 1.0 0.00 0.00 0.00 39 1026.2
20260906003148 78 175 1.0 2.0 0.00 0.00 0.00 38 1026.0
20260906002648 78 159 1.0 1.0 0.00 0.00 0.00 38 1025.9
20260906002142 78 158 1.0 1.0 0.00 0.00 0.00 37 1025.6
20260906001638 79 150 0.0 0.0 0.00 0.00 0.00 37 1025.8
20260906001137 80 218 1.0 2.0 0.00 0.00 0.00 36 1025.8
20260906000633 78 157 0.0 0.0 0.00 0.00 0.00 37 1025.6
20260906000129 78 157 1.0 1.0 0.00 0.00 0.00 37 1025.5
20260905235627 78 141 0.0 0.0 0.00 0.00 0.00 38 1025.8
20260905235123 77 166 1.0 1.0 0.00 0.00 0.00 38 1026.0
20260905234618 77 164 1.0 1.0 0.00 0.00 0.00 38 1026.0
20260905234113 78 156 0.0 0.0 0.00 0.00 0.00 38 1025.8
20260905233608 78 171 1.0 1.0 0.00 0.00 0.00 38 1026.0
20260905233102 78 163 0.0 0.0 0.00 0.00 0.00 37 1025.8
20260905232558 78 129 0.0 1.0 0.00 0.00 0.00 37 1025.6
20260905232053 79 89 4.0 5.0 0.00 0.00 0.00 36 1025.8
20260905231548 79 116 4.0 6.0 0.00 0.00 0.00 36 1025.6
20260905231044 78 167 2.0 2.0 0.00 0.00 0.00 37 1025.6
20260905230544 78 162 1.0 1.0 0.00 0.00 0.00 37 1025.8
20260905230043 79 115 2.0 3.0 0.00 0.00 0.00 37 1025.9
20260905225537 79 71 4.0 5.0 0.00 0.00 0.00 37 1025.8
20260905225033 77 153 1.0 1.0 0.00 0.00 0.00 40 1026.2
20260905224532 76 149 1.0 1.0 0.00 0.00 0.00 40 1026.2
20260905224032 75 162 2.0 2.0 0.00 0.00 0.00 46 1026.0
20260905223530 78 86 1.0 3.0 0.00 0.00 0.00 41 1026.4
20260905223026 77 150 0.0 0.0 0.00 0.00 0.00 39 1026.3
20260905222525 77 160 1.0 1.0 0.00 0.00 0.00 39 1026.0
20260905222020 77 189 3.0 3.0 0.00 0.00 0.00 39 1026.2
20260905221517 78 143 2.0 2.0 0.00 0.00 0.00 38 1026.2
20260905221013 78 157 2.0 2.0 0.00 0.00 0.00 38 1025.8
20260905220508 78 155 0.0 0.0 0.00 0.00 0.00 38 1026.2